[[{"header":{"parameterUnit":"m.s-1","parameterCategory":1,"la1":30.2991,"la2":30.254,"lo1":-89.0895,"lo2":-89.0444,"dy":0.0017,"dx":0.0017,"nx":28,"ny":28,"refTime":"2025-09-19T09:00:00:Z","depth":0,"parameterNumber":2,"parameterNumberName":"U-component_of_WINDS"},"data":[0,0,0,0,0,0,0,0,0,0,0,0,0,0,0,0,0,0,0,0,0,0,0,0,0,0,0,0,0,0,0,0,0,0,0,0,0,0,0,0,0,0,0,0,0,0,0,0,0,0,0,0,0,0,0,0,0,0,3.3172,3.3173,0,3.3263,3.3264,3.3265,3.3221,3.3219,3.3216,3.3214,3.3311,3.3316,3.3321,0,0,0,0,0,0,0,0,0,0,0,0,0,3.2961,3.2965,3.3171,3.3173,3.3174,3.3263,3.3264,3.3265,3.3222,3.3219,3.3216,3.3213,3.331,3.3315,3.3321,0,0,0,0,0,0,0,0,0,0,0,0,0,3.3053,3.2966,3.3171,3.3163,3.3163,3.3262,3.3264,3.3266,3.3222,3.3219,3.3215,3.3212,3.3308,3.3315,3.3322,3.3437,0,0,3.3344,3.3347,0,0,0,0,0,0,0,0,3.3047,3.306,3.3163,3.3163,3.3164,3.3227,3.3225,3.3323,3.3223,3.32,3.3214,3.321,3.3286,3.3295,3.332,3.3441,3.3445,3.3344,3.3349,3.3352,3.3354,0,0,0,0,0,0,0,3.3041,3.3056,3.3208,3.3164,3.3165,3.3155,3.3164,3.3244,3.3262,3.3201,3.3198,3.321,3.3286,3.3313,3.3322,3.3447,3.3344,3.3351,3.3355,3.3358,3.3664,3.3668,0,0,0,0,0,0,3.3035,3.3051,3.3205,3.321,3.3096,3.3161,3.3172,3.321,3.3261,3.3265,3.3213,3.3207,3.3303,3.3314,3.3325,3.346,3.3352,3.3358,3.3363,3.366,3.3665,3.3669,0,0,0,0,0,0,3.303,3.3049,3.3201,3.313,3.3149,3.3169,3.3213,3.3214,3.3241,3.3269,3.3272,3.3237,3.33,3.3315,3.3408,3.3463,3.3362,3.3368,3.3656,3.3662,3.3667,3.3733,0,0,0,0,0,0,3.3025,3.3048,3.3091,3.3131,3.3153,3.3282,3.3216,3.3218,3.3253,3.3247,3.3293,3.3297,3.3299,3.3398,3.3415,3.3471,3.3374,3.3651,3.3658,3.3665,3.3726,3.374,3.3753,0,0,0,0,0,3.3017,3.3107,3.3093,3.3112,3.3207,3.3285,3.3298,3.3297,3.3258,3.3301,3.3319,3.3296,3.3455,3.3408,3.3427,3.3486,3.3647,3.3656,3.3665,3.372,3.3738,3.3752,0,0,0,0,0,0,3.3074,3.3112,3.3097,3.3203,3.3241,3.3278,3.3333,3.3316,3.3367,3.3359,3.3357,3.3368,3.3463,3.3485,3.3431,3.3598,3.3545,3.3558,3.3581,3.3598,3.3611,3.3603,3.338,0,0,0,0,0,3.3099,3.3159,3.3189,3.328,3.3299,3.3313,3.3347,3.3343,3.3383,3.3399,3.3424,3.3464,3.3523,3.3562,3.3618,3.373,3.3738,3.378,3.3793,3.3804,3.3814,3.3873,3.3891,3.3697,3.3697,3.3697,0,0,3.3151,3.3179,3.3217,3.3292,3.3321,3.3382,3.3327,3.3396,3.3441,3.341,3.3498,3.3518,3.3563,3.3665,3.3712,3.3686,3.387,3.3815,3.3823,3.3828,3.3883,3.3902,3.3918,3.3703,3.3702,3.3701,0,0,3.3277,3.3305,3.3382,3.3411,3.3455,3.3464,3.3482,3.3522,3.3533,3.3621,3.3598,3.3654,3.3756,3.3788,3.3817,3.3954,3.3933,3.3973,3.4041,3.4098,3.4113,3.4127,3.4173,3.419,3.3984,3.3984,3.3984,0,3.3336,3.3427,3.3424,3.3493,3.3526,3.3499,3.3577,3.3606,3.3667,3.369,3.366,3.3786,3.3815,3.3923,3.3956,3.3982,3.4002,3.3966,3.4111,3.4125,3.4137,3.4181,3.4199,3.3988,3.3987,3.3987,3.3987,0,3.3496,3.356,3.3617,3.3674,3.3714,3.3787,3.3795,3.3836,3.3828,3.384,3.3929,3.3963,3.4024,3.405,3.4044,3.4157,3.4139,3.4111,3.4057,3.416,3.4201,3.4218,3.3994,3.3993,3.3991,3.399,0,0,3.366,3.3713,3.3734,3.3758,3.3804,3.3854,3.3926,3.3984,3.4018,3.4061,3.412,3.4207,3.418,3.4214,3.4212,3.4262,3.4365,3.4227,3.4228,3.4249,3.4488,3.4507,3.4527,3.4352,3.4356,3.4358,3.4484,0,3.3787,3.3911,3.3909,3.4025,3.4082,3.4057,3.412,3.4155,3.4168,3.4219,3.4234,3.4294,3.4256,3.4275,3.4324,3.4342,3.4412,3.4333,3.4407,3.4409,3.4393,3.4549,3.457,3.4687,3.45,3.4503,3.4505,0,3.3951,3.3997,3.4117,3.4152,3.4177,3.4233,3.4285,3.4335,3.4374,3.438,3.4416,3.4406,3.4479,3.4425,3.4525,3.4471,3.4501,3.4514,3.4519,3.4524,3.4462,3.4556,3.4724,3.4741,3.4531,3.4529,3.4527,0,3.4055,3.4147,3.423,3.4252,3.4297,3.4336,3.4357,3.4392,3.4427,3.4473,3.4495,3.455,3.458,3.4623,3.4627,3.4587,3.4727,3.4674,3.4733,3.4733,3.4762,3.476,3.4935,3.4786,3.4786,3.4786,3.4785,0,3.4195,3.4269,3.4277,3.4328,3.441,3.4408,3.4489,3.4506,3.4538,3.4592,3.4575,3.4626,3.463,3.4683,3.4688,3.4768,3.4783,3.4789,3.4789,3.4789,3.4788,3.4807,3.4798,3.479,3.4789,3.4788,3.4788,0,3.4324,3.4333,3.4421,3.4455,3.4465,3.4524,3.4553,3.4601,3.4612,3.468,3.4696,3.4714,3.4775,3.4784,3.4857,3.486,3.4956,3.4949,3.4941,3.494,3.4998,3.4991,3.5189,3.5214,3.5052,3.5053,3.5055,0,3.4412,3.4468,3.4507,3.4541,3.4563,3.4618,3.4652,3.4653,3.4689,3.4737,3.478,3.4839,3.4885,3.4984,3.5004,3.5059,3.5051,3.5117,3.5059,3.5057,3.5049,3.5044,3.5049,3.5127,3.5129,3.513,3.5132,0,3.4566,3.4567,3.4616,3.4666,3.4707,3.4747,3.4785,3.4815,3.482,3.4862,3.4922,3.4959,3.5031,3.5089,3.5143,3.5165,3.5149,3.515,3.5166,3.5165,3.5158,3.516,3.4969,3.5145,3.5143,3.5143,3.5142,3.5141,3.4675,3.4722,3.4756,3.4811,3.484,3.4875,3.4921,3.4937,3.4987,3.5044,3.5043,3.5109,3.5146,3.5216,3.5242,3.5294,3.5273,3.5297,3.5303,3.5308,3.5312,3.5151,3.5305,3.5304,3.5304,3.5304,3.5303,0,3.4825,3.4846,3.4896,3.4948,3.4992,3.4972,3.5012,3.505,3.5108,3.5143,3.5188,3.5258,3.5314,3.5337,3.5392,3.543,3.5423,3.5444,3.544,3.5445,3.5329,3.5308,3.5448,3.5448,3.5447,3.5447,3.5447,3.5447,3.4909,3.4987,3.4991,3.5083,3.5103,3.5167,3.5191,3.5223,3.5251,3.5328,3.5374,3.5388,3.5419,3.5475,3.5526,3.5531,3.5551,3.5574,3.5576,3.5468,3.5453,3.5439,3.5419,3.5579,3.5579,3.5687,3.5688,3.5688]},{"header":{"parameterUnit":"m.s-1","parameterCategory":1,"la1":30.2991,"la2":30.254,"lo1":-89.0895,"lo2":-89.0444,"dy":0.0017,"dx":0.0017,"nx":28,"ny":28,"refTime":"2025-09-19T09:00:00:Z","depth":0,"parameterNumber":3,"parameterNumberName":"V-component_of_WINDS"},"data":[0,0,0,0,0,0,0,0,0,0,0,0,0,0,0,0,0,0,0,0,0,0,0,0,0,0,0,0,0,0,0,0,0,0,0,0,0,0,0,0,0,0,0,0,0,0,0,0,0,0,0,0,0,0,0,0,0,0,0.9935,0.9936,0,1.0015,1.0016,1.0017,1.0013,1.0012,1.0011,1.001,1.0092,1.0095,1.0098,0,0,0,0,0,0,0,0,0,0,0,0,0,0.9777,0.978,0.9935,0.9936,0.9937,1.0015,1.0016,1.0017,1.0013,1.0012,1.001,1.0009,1.0091,1.0095,1.0099,0,0,0,0,0,0,0,0,0,0,0,0,0,0.985,0.9781,0.9935,0.9944,0.9946,1.0015,1.0016,1.0017,1.0013,1.0012,1.001,1.0008,1.009,1.0094,1.0099,1.0164,0,0,1.0114,1.0116,0,0,0,0,0,0,0,0,0.9846,0.9856,0.9942,0.9944,0.9946,1.0002,0.9991,1.0066,1.0014,0.9988,1.001,1.0008,1.0064,1.007,1.0089,1.0168,1.0171,1.0115,1.0118,1.012,1.0121,0,0,0,0,0,0,0,0.9841,0.9853,0.9967,0.9943,0.9945,0.9944,0.9953,1.0005,1.0034,0.999,0.999,0.9999,1.0064,1.0085,1.0091,1.0172,1.0114,1.0119,1.0122,1.0124,1.0305,1.0307,0,0,0,0,0,0,0.9834,0.9848,0.9964,0.9969,0.9891,0.9948,0.9958,0.9986,1.0034,1.0039,1.0001,0.9999,1.0077,1.0085,1.0094,1.0172,1.012,1.0124,1.0127,1.0304,1.0306,1.0308,0,0,0,0,0,0,0.9831,0.9844,0.9961,0.9909,0.9923,0.9953,0.9984,0.9988,1.0009,1.0042,1.0047,1.0016,1.0076,1.0087,1.0146,1.0175,1.0126,1.0131,1.0301,1.0304,1.0307,1.0328,0,0,0,0,0,0,0.9826,0.9843,0.9869,0.9909,0.9926,1.0012,0.9986,0.9991,1.0017,1.0015,1.0058,1.0063,1.0076,1.0139,1.0151,1.0181,1.0135,1.0299,1.0303,1.0306,1.0325,1.0332,1.0337,0,0,0,0,0,0.9821,0.9872,0.987,0.9884,0.9958,1.0014,1.0023,1.0036,1.0019,1.0045,1.0066,1.0062,1.0169,1.0145,1.0158,1.019,1.0297,1.0302,1.0306,1.0323,1.033,1.0337,0,0,0,0,0,0,0.9835,0.9878,0.9876,0.9942,0.9974,1.0013,1.0046,1.0044,1.0082,1.0079,1.0094,1.0103,1.0162,1.0182,1.0154,1.0254,1.0231,1.0238,1.0239,1.0247,1.0253,1.0247,1.0139,0,0,0,0,0,0.9845,0.9886,0.9922,0.9977,0.9993,1.0016,1.0041,1.0048,1.0082,1.0096,1.0121,1.0154,1.0195,1.0222,1.0262,1.0328,1.0336,1.0356,1.0362,1.0366,1.0373,1.0408,1.0416,1.0322,1.0322,1.0322,0,0,0.9868,0.9896,0.9922,0.998,1.0006,1.0048,1.0028,1.0074,1.0105,1.0103,1.016,1.0179,1.0217,1.0279,1.0308,1.0297,1.04,1.0372,1.0375,1.0379,1.0413,1.0422,1.043,1.0325,1.0324,1.0324,0,0,0.9931,0.9957,1.0005,1.003,1.0069,1.0084,1.0095,1.0134,1.0147,1.0204,1.0203,1.0239,1.031,1.0337,1.0359,1.0429,1.0427,1.0442,1.0473,1.0507,1.0514,1.0521,1.0545,1.0554,1.0448,1.0448,1.0448,0,0.9955,1.0018,1.003,1.0075,1.01,1.0099,1.0147,1.0172,1.0222,1.0239,1.0226,1.0313,1.0339,1.0407,1.0423,1.0442,1.0455,1.0438,1.0512,1.0519,1.0526,1.0549,1.0558,1.0449,1.0449,1.0449,1.0449,0,1.0044,1.0088,1.0122,1.017,1.0198,1.0245,1.0263,1.0291,1.0294,1.031,1.0368,1.0398,1.0443,1.0459,1.0464,1.0527,1.0519,1.0509,1.0487,1.0536,1.0558,1.0567,1.0452,1.0451,1.0451,1.045,0,0,1.0121,1.0172,1.0184,1.0205,1.0247,1.0281,1.0326,1.037,1.0393,1.0427,1.0465,1.0523,1.0514,1.054,1.0547,1.0576,1.0629,1.0563,1.0564,1.0574,1.0699,1.0707,1.0717,1.0627,1.0628,1.063,1.0696,0,1.0188,1.0269,1.028,1.0352,1.0392,1.039,1.0429,1.0459,1.0474,1.051,1.0527,1.0568,1.0552,1.0568,1.0597,1.0616,1.0654,1.0612,1.0662,1.0664,1.0653,1.0729,1.0738,1.0799,1.0705,1.0706,1.0707,0,1.0278,1.0313,1.0389,1.0423,1.044,1.0476,1.0515,1.055,1.0582,1.0591,1.0618,1.0621,1.0668,1.0642,1.0705,1.0676,1.0697,1.0709,1.0712,1.0718,1.0689,1.0737,1.0819,1.0828,1.0721,1.072,1.0719,0,1.0325,1.0391,1.0445,1.0463,1.0504,1.0529,1.0547,1.0578,1.0603,1.0637,1.0653,1.0693,1.0715,1.0744,1.0757,1.0738,1.082,1.0796,1.0828,1.0828,1.0846,1.0845,1.0933,1.0859,1.0859,1.0859,1.0859,0,1.0399,1.0446,1.0466,1.05,1.0551,1.0562,1.0612,1.063,1.0656,1.0692,1.0693,1.0726,1.0741,1.0776,1.0787,1.0837,1.0847,1.0855,1.0857,1.0855,1.0854,1.087,1.0866,1.0861,1.0861,1.086,1.086,0,1.0462,1.0478,1.0536,1.0569,1.0579,1.0615,1.0644,1.0675,1.0689,1.0734,1.0745,1.0768,1.0809,1.0825,1.0875,1.0882,1.094,1.0939,1.0929,1.093,1.0962,1.0958,1.1063,1.1077,1.0994,1.0995,1.0995,0,1.0508,1.0544,1.0581,1.0604,1.0623,1.0662,1.0687,1.0698,1.0724,1.0762,1.0789,1.083,1.0864,1.093,1.095,1.0988,1.0988,1.1022,1.0994,1.099,1.0988,1.0986,1.0989,1.1027,1.1028,1.1029,1.103,0,1.0589,1.0594,1.063,1.0668,1.0698,1.0729,1.0758,1.0778,1.0793,1.0822,1.0864,1.089,1.0941,1.0982,1.102,1.1039,1.1037,1.1038,1.1047,1.1046,1.1039,1.1043,1.0944,1.1036,1.1035,1.1035,1.1034,1.1034,1.0645,1.0676,1.0706,1.0745,1.0769,1.0796,1.0827,1.0844,1.0879,1.0921,1.0926,1.0971,1.1,1.1052,1.1072,1.1107,1.1098,1.1112,1.1115,1.1118,1.1121,1.1033,1.1114,1.1114,1.1113,1.1113,1.1113,0,1.0726,1.0744,1.078,1.0821,1.0852,1.0846,1.0878,1.0904,1.0944,1.0972,1.1004,1.1052,1.109,1.1113,1.1151,1.1175,1.1175,1.1184,1.1183,1.1187,1.1127,1.1115,1.1184,1.1184,1.1184,1.1184,1.1184,1.1184,1.0771,1.0823,1.0831,1.0894,1.0912,1.0956,1.0975,1.0999,1.1021,1.1074,1.1106,1.112,1.1146,1.1185,1.122,1.1226,1.124,1.1251,1.1255,1.1199,1.1192,1.1185,1.1173,1.1254,1.1254,1.1313,1.1313,1.1314]}]]